Flag for U.S.A. Weather past 2 weeks in Kalamazoo, Michigan, U.S.A.

46 °F

Light rain. Fog.

Feels Like: 40 °F
Forecast: 35 / 56 °F
Wind: 14 mph from Northwest

Location: Kalamazoo / Battle Creek International Airport

Current Time: Nov 27, 2015 at 10:50:48 AM

Latest Report: Nov 27, 2015 at 9:53 AM

Visibility: 5 mi

Pressure: 30.27 "Hg

Humidity: 89%

Dew point: 43 °F

Location of KalamazooLocation

Historic Weather in Kalamazoo — Graph


Kalamazoo temperature yesterday

Maximum temperature yesterday: 60 °F (at 2:55 PM)
Minimum temperature yesterday: 47 °F (at 3:53 AM)
Average temperature yesterday: 54 °F

Past Weeks' High & Low Weather Summary

High64 °F (Nov 15, 2:53 PM)96% (Nov 24, 9:53 AM)30.38 "Hg (Nov 24, 9:53 AM)
Low20 °F (Nov 22, 7:53 PM)23% (Nov 16, 2:53 PM)29.37 "Hg (Nov 12, 9:53 AM)
Average43 °F65%30.10 "Hg
* Reported Nov 12 9:53 AM — Nov 27 9:53 AM, Kalamazoo, Weather by CustomWeather, © 2015

Note: Actual official high and low records may vary slightly from our data, if they occured in-between our weather recording intervals... More about our weather records


Kalamazoo weather history for previous 24 hours

Time TempWeatherWind HumidityBarometerVisibility
9:53 AM
Fri, Nov 27
46 °FLight rain. Fog.14 mph89%30.27 "Hg5 mi
8:53 AM52 °FMostly cloudy.12 mph86%30.23 "Hg10 mi
7:53 AM55 °FLight rain. Fog.12 mph90%30.20 "Hg3 mi
6:53 AM56 °FLight rain. Overcast.15 mph87%30.19 "Hg9 mi
5:53 AM56 °FRain. Fog.13 mph87%30.20 "Hg5 mi
4:53 AM56 °FRain. Overcast.20 mph84%30.16 "Hg6 mi
3:53 AM57 °FLight rain. Mostly cloudy.16 mph81%30.17 "Hg8 mi
2:53 AM60 °FMostly cloudy.16 mph62%30.18 "Hg10 mi
1:53 AM59 °FPassing clouds.16 mph64%30.18 "Hg10 mi
12:53 AM60 °FMostly cloudy.20 mph62%30.21 "Hg10 mi
11:53 PM
Thu, Nov 26
60 °FOvercast.15 mph60%30.21 "Hg10 mi
10:53 PM59 °FOvercast.15 mph62%30.23 "Hg10 mi
9:53 PM58 °FOvercast.16 mph67%30.23 "Hg10 mi
8:53 PM58 °FPassing clouds.18 mph67%30.25 "Hg10 mi
7:53 PM57 °FPassing clouds.14 mph72%30.26 "Hg10 mi
6:53 PM58 °FClear.15 mph70%30.23 "Hg10 mi
5:53 PM58 °FClear.14 mph72%30.23 "Hg10 mi
4:53 PM59 °FOvercast.15 mph69%30.24 "Hg10 mi
3:53 PM60 °FOvercast.16 mph69%30.23 "Hg10 mi
2:55 PM60 °FMostly cloudy.18 mph67%30.24 "Hg10 mi
1:53 PM59 °FOvercast.18 mph67%30.28 "Hg10 mi
12:55 PM58 °FMostly cloudy.15 mph70%30.30 "Hg10 mi
12:00 PM56 °FOvercast.16 mph72%30.31 "Hg10 mi
10:53 AM53 °FLight rain. Overcast.18 mph77%30.34 "Hg10 mi
Weather by CustomWeather, © 2015

See weather overviewHow to use our weather pages